This is the latest recevied weather packets stored in our database for station/object KC7UNY-13. If no packets are shown the sender has not sent any weather packets the latest 1 day(s).
| Time | Temp. | Humidity | Pressure | Rain* | Wind** | Luminosity | Snow |
|---|---|---|---|---|---|---|---|
| 1836274850 | 31.11° C | 45% | 1012.2 hPa | 0 mm | 0 m/s | 0 W/m² | - |
| 1836274548 | 31.11° C | 45% | 1012 hPa | 0 mm | 0 m/s | 0 W/m² | - |
| 1836274401 | 31.11° C | 45% | 1012.2 hPa | 0 mm | 0 m/s | 0 W/m² | - |
| 1836274246 | 31.11° C | 44% | 1012 hPa | 0 mm | 0 m/s | 0 W/m² | - |
| 1836273940 | 31.67° C | 44% | 1012 hPa | 0 mm | 0 m/s | 0 W/m² | - |
| 1778043228 | 20° C | 35% | 1012.8 hPa | 0 mm | 0 m/s | 0 W/m² | - |
| 1778042925 | 20° C | 35% | 1012.6 hPa | 0 mm | 0 m/s | 0 W/m² | - |
| 1778042623 | 20.56° C | 34% | 1012.7 hPa | 0 mm | 0.45 m/s, 338° | 0 W/m² | - |
| 1778042319 | 20.56° C | 34% | 1012.5 hPa | 0 mm | 0.45 m/s, 17° | 0 W/m² | - |
| 1778042017 | 20.56° C | 33% | 1012.5 hPa | 0 mm | 0.45 m/s, 0° | 0 W/m² | - |
| 1778041715 | 20.56° C | 33% | 1012.3 hPa | 0 mm | 0.45 m/s, 19° | 0 W/m² | - |
| 1778041414 | 20.56° C | 33% | 1012.3 hPa | 0 mm | 0 m/s | 0 W/m² | - |
| 1778041112 | 21.11° C | 33% | 1012.4 hPa | 0 mm | 0.45 m/s, 21° | 0 W/m² | - |
| 1778040809 | 21.11° C | 32% | 1012.2 hPa | 0 mm | 0.45 m/s, 1° | 0 W/m² | - |
| 1778040506 | 21.11° C | 32% | 1012.1 hPa | 0 mm | 0.89 m/s, 315° | 0 W/m² | - |
| 1778040203 | 21.11° C | 32% | 1012.2 hPa | 0 mm | 0 m/s | 0 W/m² | - |
| 1778039899 | 21.11° C | 32% | 1012.2 hPa | 0 mm | 0.89 m/s, 298° | 0 W/m² | - |
| 1778039597 | 21.11° C | 32% | 1011.9 hPa | 0 mm | 0.45 m/s, 280° | 0 W/m² | - |
| 1778039294 | 21.11° C | 31% | 1012 hPa | 0 mm | 0.45 m/s, 316° | 0 W/m² | - |
| 1778038991 | 21.11° C | 32% | 1011.9 hPa | 0 mm | 0.45 m/s, 15° | 0 W/m² | - |
| 1778038688 | 21.67° C | 31% | 1011.7 hPa | 0 mm | 0.89 m/s, 0° | 0 W/m² | - |
| 1778038385 | 21.67° C | 31% | 1011.6 hPa | 0 mm | 0.89 m/s, 348° | 0 W/m² | - |
| 1778038082 | 21.67° C | 32% | 1011.6 hPa | 0 mm | 0 m/s | 0 W/m² | - |
| 1778037779 | 21.67° C | 31% | 1011.5 hPa | 0 mm | 0.45 m/s, 4° | 0 W/m² | - |
| 1778037475 | 21.67° C | 30% | 1011.6 hPa | 0 mm | 0.89 m/s, 3° | 0 W/m² | - |
* Rain latest hour (hover to see other rain measurements)
** Current wind speed in m/s (hover to see current wind gust speed)